Edwards AFB, CA

11:53 PM PDT on March 24, 2017 (GMT -0700)
Edwards Air Force Base

Weather History for KEDW - July, 2013

Change the Weather History Date:

Thursday, July 11, 2013

  Actual Average Record
Temperature  
Mean Temperature 82 °F -  
Max Temperature 89 °F 97 °F 111 °F (2003)
Min Temperature 73 °F 65 °F 59 °F (2005)
Cooling Degree Days 17    
Growing Degree Days 32 (Base 50)    
Moisture  
Dew Point 51 °F    
Average Humidity 36    
Maximum Humidity 61    
Minimum Humidity 24    
Precipitation  
Precipitation 0.01 in - - ()
Sea Level Pressure  
Sea Level Pressure 29.89 in    
Wind  
Wind Speed 10 mph (SW)    
Max Wind Speed 18 mph    
Max Gust Speed 23 mph    
Visibility 10 miles    
Events Rain    
Averages and records for this station are not official NWS values.
T = Trace of Precipitation, MM = Missing Value Source: NWS Daily Summary

Daily Weather History Graph

Daily Weather History Graph

Search for Another Location

Airport or City:

Trip Planner

Search our weather history database for the weather conditions in past years. The results will help you decide how hot, cold, wet, or windy it might be!

Date:

Astronomy

Jul. 11, 2013 Rise Set
Actual Time 5:46 AM PDT 8:07 PM PDT
Civil Twilight 5:17 AM PDT 8:36 PM PDT
Nautical Twilight 4:41 AM PDT 9:11 PM PDT
Astronomical Twilight 4:02 AM PDT 9:50 PM PDT
Moon 9:00 AM PDT (7/11) 10:00 PM PDT (7/11)
Length of Visible Light 15h 18m
Length of Day
14h 20m
Waxing Crescent, 11% of the Moon is Illuminated
Jul 11
Waxing Crescent
Jul 15
First Quarter
Jul 22
Full
Jul 29
Last Quarter
Aug 6
New

Hourly Weather History & Observations

Time (PDT) Temp. Heat Index Dew Point Humidity Pressure Visibility Wind Dir Wind Speed Gust Speed Precip Events Conditions
12:58 AM 82.2 °F - 46.6 °F 29% 29.82 in 10.0 mi South 5.8 mph - N/A   Partly Cloudy
1:28 AM 82.4 °F - 46.4 °F 28% 29.91 in 10.0 mi WSW 8.1 mph - N/A   Mostly Cloudy
1:43 AM 82.4 °F - 46.4 °F 28% 29.90 in 10.0 mi SSE 9.2 mph - N/A   Scattered Clouds
1:58 AM 81.0 °F - 47.3 °F 31% 29.81 in 10.0 mi SSE 4.6 mph - N/A   Mostly Cloudy
2:58 AM 82.0 °F - 43.0 °F 25% 29.79 in 10.0 mi SSW 8.1 mph - N/A   Mostly Cloudy
3:58 AM 82.0 °F - 46.0 °F 28% 29.81 in 10.0 mi WSW 16.1 mph 21.9 mph N/A   Overcast
4:58 AM 77.9 °F - 50.7 °F 39% 29.81 in 10.0 mi SW 10.4 mph - N/A   Mostly Cloudy
5:03 AM 77.0 °F - 50.0 °F 39% 29.91 in 10.0 mi SSW 10.4 mph - N/A   Scattered Clouds
5:33 AM 77.0 °F - 50.0 °F 39% 29.90 in 10.0 mi SSW 5.8 mph - N/A   Mostly Cloudy
5:58 AM 77.5 °F - 49.6 °F 37% 29.84 in 50.0 mi SSW 10.4 mph - N/A   Overcast
6:58 AM 77.7 °F - 50.5 °F 38% 29.85 in 50.0 mi SSW 10.4 mph - N/A   Overcast
7:54 AM 77.0 °F - 51.8 °F 41% 29.94 in 50.0 mi SW 8.1 mph - N/A Rain Light Rain Showers
7:58 AM 77.0 °F - 52.0 °F 42% 29.86 in 50.0 mi SW 8.1 mph - 0.00 in Rain Light Rain Showers
8:06 AM 77.0 °F - 51.8 °F 41% 29.94 in 10.0 mi SW 9.2 mph - N/A   Mostly Cloudy
8:12 AM 77.0 °F - 51.8 °F 41% 29.95 in 10.0 mi SW 12.7 mph - N/A Rain Light Rain
8:34 AM 75.2 °F - 57.2 °F 53% 29.94 in 80.0 mi WSW 12.7 mph - N/A Rain Light Rain Showers
8:58 AM 75.4 °F - 56.5 °F 52% 29.88 in 80.0 mi West 10.4 mph - 0.00 in Rain Light Rain Showers
8:59 AM 75.2 °F - 55.4 °F 50% 29.95 in 80.0 mi West 10.4 mph - N/A   Mostly Cloudy
9:06 AM 75.2 °F - 55.4 °F 50% 29.95 in 50.0 mi WSW 9.2 mph - N/A Rain Light Rain Showers
9:40 AM 77.0 °F - 53.6 °F 44% 29.97 in 50.0 mi South 10.4 mph - N/A   Overcast
9:49 AM 77.0 °F - 55.4 °F 47% 29.98 in 50.0 mi SSW 5.8 mph - N/A Rain Light Rain Showers
9:58 AM 76.3 °F - 56.5 °F 50% 29.90 in 50.0 mi SW 5.8 mph - 0.00 in Rain Light Rain Showers
10:51 AM 75.2 °F - 60.8 °F 61% 29.98 in 50.0 mi SW 4.6 mph - N/A   Overcast
10:58 AM 75.2 °F - 59.0 °F 57% 29.91 in 50.0 mi SW 4.6 mph - 0.01 in   Mostly Cloudy
11:52 AM 80.6 °F 80.3 °F 53.6 °F 39% 29.98 in 50.0 mi SW 9.2 mph - N/A Rain Light Rain Showers
11:58 AM 80.2 °F - 52.3 °F 38% 29.91 in 50.0 mi SW 10.4 mph - 0.00 in Rain Light Rain Showers
12:19 PM 80.6 °F - 50.0 °F 34% 29.98 in 50.0 mi WSW 10.4 mph - N/A   Overcast
12:58 PM 83.3 °F - 49.3 °F 31% 29.90 in 50.0 mi SW 8.1 mph - 0.00 in   Overcast
1:18 PM 84.2 °F - 48.2 °F 29% 29.98 in 50.0 mi South 4.6 mph - N/A   Mostly Cloudy
1:58 PM 84.7 °F - 50.0 °F 30% 29.88 in 50.0 mi SSW 6.9 mph - N/A   Overcast
2:58 PM 88.0 °F - 49.8 °F 27% 29.86 in 50.0 mi SW 8.1 mph - N/A   Mostly Cloudy
3:03 PM 87.8 °F - 50.0 °F 27% 29.93 in 50.0 mi WSW 10.4 mph - N/A   Mostly Cloudy
3:43 PM 89.6 °F - 50.0 °F 26% 29.91 in 50.0 mi South 10.4 mph - N/A   Mostly Cloudy
3:58 PM 89.1 °F - 49.5 °F 26% 29.83 in 50.0 mi SSW 9.2 mph - N/A   Mostly Cloudy
4:58 PM 88.7 °F - 48.0 °F 24% 29.82 in 50.0 mi WSW 16.1 mph - N/A   Mostly Cloudy
5:18 PM 87.8 °F - 46.4 °F 24% 29.89 in 50.0 mi WSW 17.3 mph - N/A   Mostly Cloudy
5:38 PM 86.0 °F - 48.2 °F 27% 29.89 in 50.0 mi WSW 17.3 mph - N/A   Mostly Cloudy
5:58 PM 85.6 °F - 49.3 °F 28% 29.81 in 50.0 mi WSW 18.4 mph - N/A   Mostly Cloudy
6:43 PM 86.0 °F - 50.0 °F 29% 29.88 in 50.0 mi WSW 18.4 mph - N/A   Mostly Cloudy
6:58 PM 84.9 °F - 48.9 °F 29% 29.81 in 50.0 mi WSW 13.8 mph - N/A   Mostly Cloudy
7:12 PM 84.2 °F - 50.0 °F 30% 29.88 in 50.0 mi WSW 15.0 mph 23.0 mph N/A   Mostly Cloudy
7:33 PM 82.4 °F - 48.2 °F 30% 29.89 in 50.0 mi WSW 16.1 mph - N/A   Mostly Cloudy
7:38 PM 82.4 °F - 48.2 °F 30% 29.89 in 50.0 mi WSW 15.0 mph - N/A   Mostly Cloudy
7:43 PM 82.4 °F - 48.2 °F 30% 29.89 in 50.0 mi WSW 16.1 mph - N/A   Mostly Cloudy
7:58 PM 82.0 °F - 48.2 °F 31% 29.82 in 50.0 mi WSW 11.5 mph - N/A   Mostly Cloudy
8:58 PM 80.2 °F - 49.1 °F 34% 29.83 in 40.0 mi SW 18.4 mph - N/A   Mostly Cloudy
9:28 PM 78.8 °F - 48.2 °F 34% 29.91 in 30.0 mi SW 16.1 mph - N/A   Mostly Cloudy
9:53 PM 78.8 °F - 48.2 °F 34% 29.91 in 30.0 mi WSW 17.3 mph - N/A   Mostly Cloudy
9:58 PM 78.8 °F - 48.6 °F 34% 29.85 in 30.0 mi SW 16.1 mph - N/A   Mostly Cloudy
10:33 PM 77.0 °F - 51.8 °F 41% 29.92 in 10.0 mi SW 13.8 mph - N/A   Scattered Clouds
10:58 PM 76.5 °F - 52.0 °F 42% 29.86 in 10.0 mi SW 13.8 mph - N/A   Partly Cloudy
11:58 PM 73.4 °F - 53.6 °F 50% 29.86 in 10.0 mi SW 10.4 mph - N/A   Mostly Cloudy